Probability
0 0 0 0 0 0 0 0 0 0 0 0 0 0 0 0 0 0 0 3 48 32 10 3 3 23 16 19 42 81 94 97 100 100 100 100 100 94 81 58 29 19 6
3 0 0 0 0 0 0 0 0 0 0 0 0 0 0 0 0 0 0 0 3 23 19 23 19 26 32 19 32 58 90 100 100 100 100 100 100 100 87 55 29 16 6
3 0 0 0 0 0 0 0 0 0 0 0 0 0 0 0 0 0 0 0 0 0 0 10 45 58 52 55 42 48 81 100 100 100 100 97 97 100 97 74 35 23 10
3 0 0 0 0 0 0 0 0 0 0 0 0 0 0 0 0 0 0 0 0 0 0 0 6 45 52 58 55 65 90 97 97 100 97 100 94 97 94 84 71 42 29
0 0 0 0 0 0 0 0 0 0 0 0 0 0 0 0 0 0 0 0 0 0 0 0 3 16 55 58 61 61 90 87 90 94 94 90 90 90 84 77 65 35 16
0 0 0 0 0 0 0 0 0 0 0 0 0 0 0 0 0 0 0 0 0 0 0 0 0 0 10 68 77 61 58 68 77 77 71 71 58 52 45 39 26 13 10
0 0 0 0 0 0 0 0 0 0 0 0 0 0 0 0 0 0 0 0 0 0 0 0 0 0 0 3 35 58 48 45 48 42 39 32 32 32 26 16 13 6 6
0 0 0 0 0 0 0 0 0 0 0 0 0 0 0 0 0 0 0 0 0 0 0 0 0 0 0 0 0 3 35 45 39 35 26 29 29 26 13 13 3 6 13
0 0 0 0 0 0 0 0 0 0 0 0 0 0 0 0 0 0 0 0 0 0 0 0 0 0 0 0 0 0 0 3 39 26 29 19 26 6 10 3 3 0 16
0 0 0 0 0 0 0 0 0 0 0 0 0 0 0 0 0 0 0 0 0 0 0 0 0 0 0 0 0 0 0 0 23 35 23 23 16 13 10 0 3 13 16
3 0 0 0 0 0 0 0 0 0 0 0 0 0 0 0 0 0 0 0 0 0 0 0 0 0 0 0 0 0 0 0 3 29 19 23 16 13 13 19 13 19 10
0 0 0 0 0 0 0 0 0 0 0 0 0 0 0 0 0 0 0 0 0 0 0 0 0 0 0 0 0 0 0 0 0 6 23 26 19 13 13 10 19 19 10
0 0 0 0 0 0 0 0 0 0 0 0 0 0 0 0 0 0 0 0 0 0 0 0 0 0 0 0 0 0 0 0 0 0 0 0 19 26 16 16 16 23 10
0 0 0 0 0 0 0 0 0 0 0 0 0 0 0 0 0 0 0 0 0 0 0 0 0 0 0 0 0 0 0 0 0 0 0 0 3 13 26 32 26 19 10
0 0 0 0 0 0 0 0 0 0 0 0 0 0 0 0 0 0 0 0 0 0 0 0 0 0 0 0 0 0 0 0 0 0 0 0 0 0 10 16 23 16 10
0 0 0 0 0 0 0 0 0 0 0 0 0 0 0 0 0 0 0 0 0 0 0 0 0 0 0 0 0 0 0 0 0 0 0 0 0 0 0 0 0 0 3
0 0 0 0 0 0 0 0 0 0 0 0 0 0 0 0 0 0 0 0 0 0 0 0 0 0 0 0 0 0 0 0 0 0 0 0 0 0 0 0 0 0 0
0 0 0 0 0 0 0 0 0 0 0 0 0 0 0 0 0 0 0 0 0 0 0 0 0 0 0 0 0 0 0 0 0 0 0 0 0 0 0 0 0 0 0
0 0 0 0 0 0 0 0 0 0 0 0 0 0 0 0 0 0 0 0 0 0 0 0 0 0 0 0 0 0 0 0 0 0 0 0 0 0 0 0 0 0 0
0 0 0 0 0 0 0 0 0 0 0 0 0 0 0 0 0 0 0 0 0 0 0 0 0 0 0 0 0 0 0 0 0 0 0 0 0 0 0 0 0 0 0
0 0 0 0 0 0 0 0 0 0 0 0 0 0 0 0 0 0 0 0 0 0 0 0 0 0 0 0 0 0 0 0 0 0 0 0 0 0 0 0 0 0 0
0 0 0 0 0 0 0 0 0 0 0 0 0 0 0 0 0 0 0 0 0 0 0 0 0 0 0 0 0 0 0 0 0 0 0 0 0 0 0 0 0 0 0
0 0 0 0 0 0 0 0 0 0 0 0 0 0 0 0 0 0 0 0 0 0 0 0 0 0 0 0 0 0 0 0 0 0 0 0 0 0 0 0 0 0 0
0 0 0 0 0 0 0 0 0 0 0 0 0 0 0 0 0 0 0 0 0 0 0 0 0 0 0 0 0 0 0 0 0 0 0 0 0 0 0 0 0 0 0
0 0 0 0 0 0 0 0 0 0 0 0 0 0 0 0 0 0 0 0 0 0 0 0 0 0 0 0 0 0 0 0 0 0 0 0 0 0 0 0 0 0 0
0 0 0 0 0 0 0 0 0 0 0 0 0 0 0 0 0 0 0 0 0 0 0 0 0 0 0 0 0 0 0 0 0 0 0 0 0 0 0 0 0 0 0
Height
5902 5903 5903 5903 5904 5904 5904 5905 5905 5906 5906 5907 5907 5907 5908 5908 5909 5909 5909 5909 5909 5910 5910 5910 5910 5909 5909 5909 5909 5909 5909 5909 5909 5910 5910 5910 5911 5911 5911 5911 5912 5912 5913
5898 5899 5899 5900 5900 5900 5900 5900 5901 5902 5902 5902 5903 5904 5904 5905 5905 5906 5906 5906 5907 5907 5907 5907 5907 5907 5907 5907 5906 5907 5907 5907 5907 5907 5907 5907 5908 5908 5908 5909 5909 5909 5910
5894 5894 5894 5895 5895 5895 5896 5896 5896 5897 5898 5898 5899 5900 5900 5901 5901 5902 5902 5903 5903 5904 5904 5904 5904 5903 5903 5903 5903 5903 5903 5903 5903 5903 5903 5904 5904 5905 5905 5905 5906 5906 5906
5888 5889 5889 5890 5890 5890 5890 5891 5891 5892 5893 5893 5894 5894 5895 5896 5897 5897 5898 5899 5899 5900 5900 5900 5900 5900 5900 5899 5899 5899 5899 5899 5899 5899 5899 5900 5900 5901 5901 5901 5902 5902 5902
5882 5883 5883 5884 5884 5884 5885 5885 5886 5887 5888 5888 5889 5889 5890 5891 5892 5892 5893 5894 5895 5896 5896 5896 5896 5896 5896 5896 5895 5895 5895 5895 5895 5895 5895 5895 5895 5896 5896 5897 5897 5897 5897
5876 5876 5877 5877 5877 5878 5878 5879 5880 5881 5882 5883 5883 5884 5884 5885 5886 5887 5888 5889 5890 5891 5891 5891 5892 5892 5892 5891 5891 5891 5891 5890 5890 5890 5890 5890 5890 5890 5891 5891 5892 5892 5892
5869 5870 5870 5870 5870 5871 5871 5872 5873 5874 5875 5877 5877 5878 5879 5880 5880 5881 5882 5883 5884 5885 5886 5886 5887 5887 5887 5887 5887 5886 5886 5886 5885 5885 5885 5884 5884 5885 5885 5885 5886 5886 5887
5861 5862 5863 5863 5864 5864 5863 5864 5865 5866 5868 5870 5871 5872 5873 5874 5874 5875 5876 5877 5878 5879 5880 5881 5881 5882 5881 5881 5882 5881 5881 5881 5880 5880 5879 5879 5879 5879 5879 5879 5880 5880 5881
5854 5855 5856 5857 5856 5857 5857 5857 5858 5859 5860 5862 5863 5865 5866 5867 5868 5869 5870 5871 5872 5872 5874 5875 5875 5876 5876 5876 5876 5876 5876 5876 5875 5875 5874 5874 5874 5873 5873 5874 5874 5875 5875
5846 5847 5849 5849 5849 5850 5850 5850 5850 5852 5853 5854 5856 5857 5859 5859 5861 5862 5863 5864 5865 5866 5867 5868 5869 5870 5870 5870 5871 5871 5871 5870 5870 5869 5869 5869 5868 5868 5868 5868 5868 5869 5870
5837 5839 5841 5842 5843 5843 5843 5843 5843 5844 5845 5846 5848 5849 5850 5852 5853 5855 5856 5858 5859 5860 5861 5862 5863 5863 5864 5864 5865 5865 5865 5865 5864 5864 5864 5863 5862 5862 5862 5862 5862 5863 5864
5828 5830 5833 5835 5836 5836 5836 5836 5837 5837 5837 5838 5840 5841 5843 5844 5846 5847 5848 5850 5851 5853 5854 5855 5856 5856 5857 5858 5858 5859 5859 5859 5859 5858 5858 5857 5857 5856 5856 5856 5856 5857 5858
5820 5822 5824 5826 5828 5829 5829 5829 5830 5830 5830 5831 5832 5833 5835 5837 5838 5840 5841 5842 5844 5845 5847 5848 5849 5850 5851 5851 5852 5853 5853 5854 5853 5853 5852 5852 5851 5851 5850 5850 5850 5851 5852
5811 5813 5815 5817 5819 5820 5821 5821 5821 5822 5822 5823 5824 5825 5827 5828 5830 5831 5833 5834 5835 5837 5839 5840 5841 5843 5844 5845 5846 5846 5847 5847 5847 5847 5847 5846 5846 5845 5845 5845 5845 5845 5846
5803 5805 5807 5808 5810 5811 5812 5812 5813 5813 5814 5814 5816 5817 5818 5819 5821 5823 5824 5826 5828 5829 5830 5832 5834 5835 5837 5838 5839 5839 5840 5841 5841 5841 5841 5841 5840 5840 5840 5839 5839 5840 5840
5794 5796 5798 5799 5801 5801 5802 5803 5803 5804 5805 5806 5807 5808 5809 5811 5812 5814 5816 5817 5818 5820 5821 5823 5825 5827 5828 5830 5831 5833 5834 5834 5835 5835 5835 5835 5835 5835 5834 5834 5834 5834 5835
5786 5788 5789 5790 5791 5792 5792 5793 5794 5795 5795 5797 5798 5799 5800 5802 5804 5805 5807 5808 5809 5811 5813 5814 5816 5818 5820 5822 5824 5826 5827 5828 5829 5830 5830 5830 5830 5829 5829 5829 5829 5829 5829
5779 5780 5781 5782 5783 5783 5783 5784 5784 5785 5786 5788 5789 5790 5792 5793 5795 5797 5798 5799 5801 5802 5804 5806 5808 5810 5812 5814 5817 5819 5821 5822 5823 5824 5824 5824 5824 5824 5824 5823 5823 5823 5822
5774 5774 5775 5775 5775 5775 5776 5776 5776 5777 5777 5779 5780 5782 5783 5785 5786 5788 5789 5791 5793 5794 5796 5798 5800 5802 5805 5807 5810 5812 5814 5816 5817 5818 5819 5819 5819 5818 5818 5818 5817 5817 5817
5771 5770 5770 5770 5770 5770 5770 5770 5769 5770 5770 5771 5772 5774 5776 5777 5779 5780 5782 5784 5786 5787 5789 5792 5794 5796 5799 5801 5804 5806 5808 5810 5811 5812 5813 5813 5813 5813 5812 5812 5812 5811 5811
5769 5768 5767 5767 5766 5765 5765 5764 5764 5764 5764 5765 5766 5767 5769 5771 5772 5774 5775 5777 5779 5782 5784 5786 5789 5791 5793 5796 5798 5800 5802 5804 5806 5807 5808 5808 5808 5807 5807 5806 5805 5805 5804
5767 5766 5764 5763 5762 5761 5760 5759 5758 5758 5759 5759 5761 5762 5763 5765 5766 5768 5770 5772 5774 5777 5779 5781 5784 5786 5788 5791 5793 5795 5797 5799 5800 5802 5802 5803 5802 5802 5801 5800 5799 5799 5798
5766 5764 5762 5759 5758 5756 5755 5754 5753 5752 5752 5753 5754 5756 5758 5759 5761 5763 5765 5768 5770 5772 5775 5777 5779 5782 5784 5786 5788 5790 5792 5793 5795 5796 5797 5797 5797 5796 5796 5795 5794 5793 5792
5765 5763 5760 5757 5754 5752 5749 5748 5747 5746 5746 5746 5747 5749 5752 5754 5756 5759 5762 5764 5766 5768 5771 5773 5775 5777 5779 5781 5783 5785 5787 5788 5790 5791 5792 5793 5792 5792 5792 5791 5789 5788 5787
5765 5761 5758 5754 5751 5747 5744 5742 5741 5740 5739 5739 5741 5743 5746 5749 5751 5754 5757 5760 5762 5765 5767 5769 5771 5773 5775 5777 5779 5781 5782 5784 5785 5786 5787 5788 5788 5788 5787 5787 5785 5784 5782
5765 5761 5756 5752 5748 5744 5740 5738 5736 5734 5733 5734 5735 5737 5740 5743 5746 5750 5753 5756 5759 5761 5764 5766 5768 5770 5772 5773 5775 5777 5778 5780 5781 5782 5783 5784 5784 5784 5784 5782 5781 5779 5777
Wind_Speed
15 16 16 16 16 17 16 16 15 14 13 13 13 13 11 9 8 7 7 7 7 7 6 6 6 6 7 8 9 9 10 10 11 11 11 12 12 11 12 13 14 15 16
17 18 18 18 18 19 19 19 18 17 16 16 15 15 14 13 11 10 10 9 9 8 8 7 7 7 7 8 10 11 12 12 13 14 14 15 15 15 15 15 15 16 18
20 20 20 20 21 21 22 21 20 19 19 19 18 17 16 15 14 13 12 11 11 10 10 9 9 8 9 9 10 11 13 14 15 16 17 17 18 18 18 18 17 18 19
23 23 23 23 23 23 24 24 23 22 21 21 20 19 18 18 17 15 15 14 13 13 12 11 11 10 10 10 11 12 13 15 16 17 18 19 20 21 21 21 20 20 20
26 26 27 26 26 27 27 26 26 24 23 22 22 21 20 20 19 18 17 16 16 15 14 13 13 12 12 12 12 13 14 15 16 17 19 20 21 22 23 23 24 23 23
27 28 29 30 30 30 29 29 28 28 26 24 24 23 23 23 22 21 20 19 18 17 16 15 15 14 14 13 14 14 15 15 16 17 18 19 21 22 23 25 25 26 26
30 31 32 32 32 32 32 31 30 30 29 28 26 25 25 25 25 25 23 22 21 20 19 17 17 16 16 16 16 16 16 16 17 17 18 19 20 21 23 25 26 27 27
35 34 33 32 32 33 33 33 31 31 31 30 29 28 27 26 26 26 25 24 23 22 21 19 18 18 18 18 18 17 17 17 18 18 18 19 19 20 22 24 26 27 28
39 38 36 34 34 34 33 31 31 31 31 31 31 29 28 28 27 26 26 26 25 24 23 22 21 20 20 20 19 19 19 19 19 19 19 19 19 20 21 23 24 26 27
41 40 39 37 35 33 31 30 29 30 32 33 33 31 31 29 27 26 26 26 26 26 25 24 23 23 22 21 20 20 20 20 20 20 20 20 20 20 21 22 23 25 26
42 41 40 37 35 32 31 30 29 29 31 34 33 32 30 30 29 28 28 27 27 27 27 26 26 25 24 23 22 21 21 21 21 21 21 21 21 21 21 22 23 24 25
39 39 38 35 34 31 29 28 28 28 29 32 32 32 32 30 29 29 29 29 28 28 28 28 29 28 27 26 24 23 23 22 22 22 22 22 22 22 22 23 23 24 25
36 36 35 34 32 31 30 28 29 29 30 30 31 31 31 31 31 31 31 31 31 30 30 30 31 30 29 28 27 25 24 24 23 22 22 22 22 22 22 23 24 24 25
33 33 33 33 32 31 31 30 29 30 30 30 30 31 32 32 32 31 32 33 33 33 33 33 33 32 31 29 28 27 26 25 24 23 23 23 22 22 22 22 23 24 25
32 32 32 32 32 32 32 32 31 32 32 32 32 32 32 33 33 33 32 33 34 34 35 34 34 33 32 30 29 28 27 26 24 24 23 23 22 21 20 21 22 23 25
30 31 31 32 33 33 34 34 34 33 33 33 33 33 34 34 34 34 33 34 34 35 35 35 34 34 32 30 30 28 27 26 25 24 23 23 22 21 20 21 22 23 24
26 27 28 30 31 32 33 33 33 34 34 35 35 35 34 34 34 35 34 35 34 34 35 36 35 34 32 29 28 27 27 26 25 24 23 22 22 21 21 21 22 22 23
19 22 23 25 26 28 29 29 30 31 32 33 34 34 34 33 33 34 33 33 33 35 35 35 34 32 31 29 27 27 26 26 24 23 23 22 22 22 22 22 22 23 23
12 14 15 17 19 21 22 23 25 26 27 29 31 31 30 31 31 30 30 30 30 30 31 30 30 28 28 27 26 26 25 24 23 22 22 21 21 22 22 22 22 23 23
5 7 10 12 13 15 16 18 20 21 22 23 24 24 25 25 25 25 25 25 25 26 26 26 25 25 25 24 24 24 23 23 22 22 21 21 21 21 22 22 23 23 24
7 7 8 10 10 12 13 15 16 17 17 18 19 20 19 19 19 20 20 20 21 20 20 20 20 21 21 22 22 22 22 22 22 22 21 20 20 20 21 22 22 23 24
9 10 10 11 11 12 13 14 15 16 17 17 17 16 16 16 15 15 16 16 15 15 16 17 17 18 19 20 20 21 21 21 22 21 21 21 20 20 20 21 22 22 23
11 11 12 12 12 14 14 15 16 16 17 18 18 18 17 16 15 15 14 13 13 14 14 14 15 16 17 19 20 20 20 20 21 21 21 20 20 19 19 19 19 21 22
14 14 14 14 13 14 14 15 15 16 17 19 19 19 18 17 16 15 15 14 14 14 14 14 15 15 16 17 18 18 19 20 20 20 20 19 19 18 19 19 19 20 22
17 17 16 16 15 14 14 13 14 14 15 16 17 18 18 18 17 16 15 15 14 14 14 13 13 13 14 15 15 16 17 17 18 18 18 18 18 18 18 19 19 21 22
21 20 19 18 17 15 14 13 12 12 12 14 15 16 17 17 17 16 15 14 13 12 12 12 12 12 12 12 12 14 14 15 15 15 15 15 15 16 17 17 19 20 21
Wind_Direction
272 273 274 275 276 277 279 281 282 284 285 284 280 279 281 289 295 298 297 293 291 290 289 287 288 288 290 295 297 298 296 295 293 291 288 286 282 277 271 264 258 253 249
270 273 274 275 275 276 277 279 280 281 283 282 278 275 275 279 283 286 287 285 282 283 284 285 285 285 285 288 291 292 291 289 288 286 284 281 279 277 275 270 264 259 255
266 269 272 274 275 275 276 278 278 279 279 278 276 272 270 272 277 282 283 281 279 278 278 280 281 282 283 286 288 289 288 286 284 282 281 280 277 275 273 272 268 263 260
261 264 267 270 272 274 276 277 276 276 275 275 275 272 270 270 273 277 279 277 275 274 275 275 276 280 282 284 287 289 289 286 283 281 279 278 276 274 272 270 269 266 264
260 263 264 266 268 270 272 274 274 274 274 273 272 272 272 270 271 272 274 274 272 271 272 272 274 277 279 282 287 290 289 287 284 282 280 278 276 274 271 268 266 265 264
262 266 266 265 267 269 269 269 271 271 271 270 270 271 271 270 270 269 268 268 267 267 269 271 273 276 278 282 285 288 289 288 286 284 282 280 278 275 272 268 266 264 263
265 268 269 269 270 269 267 267 266 267 268 267 268 268 269 268 268 267 264 263 263 264 266 268 270 273 277 280 283 287 288 287 286 284 283 282 281 278 274 270 267 264 262
263 266 271 271 272 271 268 264 263 263 264 264 264 265 266 264 265 264 263 263 262 263 264 265 267 271 275 277 280 284 285 286 287 284 283 283 283 280 276 272 269 266 263
261 264 269 270 269 271 268 263 260 259 258 260 262 261 262 262 264 263 261 261 262 262 262 263 265 269 273 275 278 281 282 284 286 285 283 282 283 281 277 274 271 267 264
260 261 264 266 269 269 267 269 263 256 254 255 257 258 259 260 261 261 260 261 261 261 261 263 265 267 271 273 276 278 280 281 283 283 282 281 281 280 278 275 272 268 264
258 259 261 264 267 271 273 274 268 260 254 251 251 252 253 256 259 260 260 261 261 261 260 261 263 265 268 270 273 276 277 278 280 280 280 280 279 279 277 274 272 269 265
257 258 259 262 266 270 273 276 272 268 260 251 248 248 247 250 253 256 258 260 261 260 258 258 260 262 265 268 271 274 274 275 276 276 277 279 279 278 277 274 271 268 265
256 256 258 260 263 267 270 273 270 271 264 257 253 250 248 247 249 252 255 258 260 259 256 255 256 258 261 265 269 272 273 273 272 273 275 277 278 278 278 274 271 268 266
255 255 257 259 262 265 268 273 272 271 265 262 259 253 250 250 249 252 255 257 258 258 256 255 255 256 257 261 266 269 270 271 271 271 272 274 276 278 278 274 271 269 267
255 256 258 259 263 265 267 271 272 270 264 261 260 256 252 250 252 252 254 256 257 258 256 254 254 255 255 257 262 265 267 268 268 269 270 272 273 275 276 275 272 271 270
258 259 260 262 264 266 267 268 267 265 262 258 256 257 257 254 253 255 256 256 256 257 255 254 253 254 253 254 258 262 265 265 265 266 267 269 271 272 274 274 274 273 273
260 261 262 263 265 266 266 266 265 261 258 257 257 257 258 256 258 258 257 257 256 255 254 254 253 252 251 252 256 259 261 261 261 263 266 269 270 271 273 274 274 274 274
262 264 264 265 265 265 265 264 262 260 257 257 256 256 258 258 259 260 259 257 255 254 254 253 253 250 248 249 253 256 258 258 260 262 266 268 269 271 273 274 274 274 275
268 268 267 267 266 264 262 260 259 257 256 255 254 255 256 256 256 257 255 252 251 251 252 252 250 248 247 248 251 253 255 257 258 261 266 269 270 272 273 273 275 276 277
296 283 277 273 270 266 264 263 260 257 254 251 249 250 250 249 247 247 247 247 248 249 249 248 248 247 247 248 250 252 254 256 258 260 264 269 271 273 273 275 276 276 277
339 320 303 292 285 278 273 270 268 264 261 257 253 248 243 242 239 238 240 242 244 245 245 245 245 245 245 247 250 252 255 256 258 260 263 268 272 273 274 276 278 278 277
350 338 322 305 295 287 280 277 274 270 265 260 256 253 247 246 244 243 241 240 239 241 240 240 241 243 243 246 248 252 255 256 258 260 264 268 273 273 275 277 276 278 279
358 349 338 323 310 299 291 284 279 275 266 257 252 250 247 246 247 246 246 245 244 242 241 240 240 242 245 246 249 251 253 255 257 259 263 268 272 275 277 280 280 282 285
5 357 349 339 328 315 302 292 283 279 271 258 249 244 241 241 242 242 241 242 242 243 242 242 241 243 245 246 247 250 253 254 256 259 263 267 271 275 279 284 286 288 290
12 6 0 353 343 331 318 303 291 281 272 260 250 244 238 235 235 235 237 239 240 240 240 243 242 244 244 245 247 248 250 253 255 258 263 268 272 276 282 288 292 294 295
20 15 9 3 356 348 336 321 305 290 274 259 246 238 234 232 231 231 232 233 233 234 237 238 238 240 242 243 247 249 250 253 255 259 264 270 275 281 288 292 296 299 300